Showing default

PRSC-E03, 68835

Orbit data source: Space-Track

PRSC-E03, 68835 is a payload satellite owned by SUPARCO (CN) in LEO that was launched on Sat, 25 Apr 2026 UTC via a CHANG ZHENG 6 launch vehicle from the Taiyaun Space Center, China (TSC). Payload-class satellites include a variety of spacecraft equipped with specific instruments for various scientific and technological missions. These include communications satellites like Starlink; space stations such as the ISS; scientific satellites like the Hubble; Earth observation satellites from companies like Planet Labs, Umbra, and HawkEye 360; GPS; miniature CubeSats for education and research; and military/defense satellites.

Loading next visibility...
Identifier
68835, 2026-092A
Orbit
LEO
Country
Flag of CNCN / PRC
Related business
Manufacturer
SUPARCO
Mission
Operational spacecraft
Bus & Motor
PRSC-EO, Unknown motor
Mass
~500 kg wet, ~500 kg dry
Launch date (UTC)
2026-04-25 (2 months ago)
Launch vehicle
CHANG ZHENG 6
Launch site
Taiyaun Space Center, China (TSC)
Object type
Payload
Rocket body
Debris
Shape & HBR
Unknown shape, 14.5 m
Radar Cross Section
Large (>1 m²)

Expand to show TLE details & history
Last TLE update: 10 hours ago

TLE from 10 hours ago
0 PRSC-E03
1 68835U 26092A   26171.43572831  .00002184  00000-0  15159-3 0  9998
2 68835  38.0016  70.5239 0003143  32.3523 327.7431 15.06682637  8442
Epoch: 2026-06-20T10:27Z
TLE epoch observation values (Epoch: 2026-06-20T10:27:26.925Z)
Latitude
-0.00004°
Longitude
5.01127°
Altitude
543.738 km
Speed
7.593 km/s
True Right ascension
04h 42m 05s
True Declination
0° 00' 00"
Sunlit
Object was in daylight at epoch
Visualization orbit readout
Latitude
Unknown
Longitude
Unknown
Altitude
Unknown
Speed
Unknown
Apparent Right ascension
Unknown
Apparent Declination
Unknown
Sunlit
N/A
Visualization observer readout
Local Sidereal Time
07:20:14
Azimuth
Unknown
Elevation
Unknown
Doppler factor
Unknown
Orbital elements
Apogee altitude
551.272 km
Perigee altitude
546.917 km
Semi-major axis
6,927.231 km
Eccentricity
0.00031
Inclination
38.0016°
RAAN
70.5239°
Arg. of periapsis
32.3523°
True anomaly
327.72387°
Mean anomaly
327.7431°
Eccentric anomaly
327.73349°
Mean motion
3.76447 °/min
Orbital period
95.63 mins
BSTAR
0.00015159
Loading maneuver chart data...
Computing Atmospheric mass density...
Loading historical data...
Loading historical data...
Loading historical data...
Loading historical data...
Loading historical data...
Loading historical data...
Loading historical data...
Other satellites on launch #92 in the year 2026 (2026-04-25 UTC)

Documentation

Showing up to 5 results
|